N6AC Weather Reports


Display with metric or nautical units.
time (UTC)temp
F
wind
direction
speed
MPH
gust
MPH
rain 1hr
in
rain 24hr
in
rain mn
in
humidity
%
barometer
mb
20260507033024 58 180 0.0 0.0 0.00 0.00 0.00 69 1014.7
20260507032014 58 0 2.0 2.0 0.00 0.00 0.00 68 1014.5
20260507031509 58 315 2.0 2.0 0.00 0.00 0.00 68 1014.0
20260507030959 59 248 3.0 3.0 0.00 0.00 0.00 68 1014.0
20260507030454 59 338 4.0 4.0 0.00 0.00 0.00 66 1014.0
20260507025949 59 338 5.0 5.0 0.00 0.00 0.00 67 1014.2
20260507025444 59 270 5.0 5.0 0.00 0.00 0.00 67 1014.2
20260507024939 59 0 5.0 5.0 0.00 0.00 0.00 67 1014.2
20260507023925 59 338 5.0 5.0 0.00 0.00 0.00 66 1014.2
20260507023419 59 315 4.0 4.0 0.00 0.00 0.00 67 1014.0
20260507022914 59 23 5.0 5.0 0.00 0.00 0.00 68 1014.0
20260507022409 59 338 6.0 6.0 0.00 0.00 0.00 69 1014.1
20260507021859 59 293 4.0 4.0 0.00 0.00 0.00 70 1014.1
20260507021355 59 270 5.0 5.0 0.00 0.00 0.00 68 1013.9
20260507020849 59 338 4.0 4.0 0.00 0.00 0.00 65 1013.9
20260507020344 59 315 5.0 5.0 0.00 0.00 0.00 66 1013.9
20260507014824 60 270 4.0 4.0 0.00 0.00 0.00 69 1013.9
20260507014319 60 225 5.0 5.0 0.00 0.00 0.00 68 1013.9
20260507013814 60 270 6.0 6.0 0.00 0.00 0.00 67 1013.8
20260507013304 60 248 4.0 4.0 0.00 0.00 0.00 67 1013.8
20260507012759 60 225 5.0 5.0 0.00 0.00 0.00 66 1013.8
20260507012254 61 270 6.0 6.0 0.00 0.00 0.00 64 1013.8
20260507011749 61 338 5.0 5.0 0.00 0.00 0.00 63 1013.8
20260507011244 61 248 7.0 7.0 0.00 0.00 0.00 63 1013.7
20260507010734 61 293 6.0 6.0 0.00 0.00 0.00 65 1013.7
20260507010229 62 315 6.0 6.0 0.00 0.00 0.00 64 1013.7
20260507005724 62 315 5.0 5.0 0.00 0.00 0.00 63 1013.7
20260507005219 63 293 6.0 6.0 0.00 0.00 0.00 62 1013.7
20260507004710 63 0 6.0 6.0 0.00 0.00 0.00 62 1013.7
20260507004205 63 315 5.0 5.0 0.00 0.00 0.00 64 1013.7
20260507003659 63 225 4.0 4.0 0.00 0.00 0.00 64 1013.7
20260507003154 63 248 4.0 4.0 0.00 0.00 0.00 62 1013.7
20260507002139 64 293 6.0 6.0 0.00 0.00 0.00 64 1013.7
20260507001635 64 0 5.0 5.0 0.00 0.00 0.00 62 1013.7
20260507001129 64 225 7.0 7.0 0.00 0.00 0.00 61 1013.6
20260507000625 64 315 5.0 5.0 0.00 0.00 0.00 65 1013.6
20260507000119 64 0 5.0 5.0 0.00 0.00 0.00 65 1013.7
20260506235610 64 45 5.0 5.0 0.00 0.00 0.00 67 1013.7
20260506235105 64 0 5.0 5.0 0.00 0.00 0.00 67 1013.8
20260506234600 65 270 9.0 9.0 0.00 0.00 0.00 65 1013.8
20260506234055 66 315 8.0 8.0 0.00 0.00 0.00 61 1013.8
20260506233455 65 338 5.0 5.0 0.00 0.00 0.00 62 1013.8
20260506232949 65 270 5.0 5.0 0.00 0.00 0.00 61 1013.8
20260506231935 65 270 6.0 6.0 0.00 0.00 0.00 64 1013.8
20260506230925 66 270 7.0 7.0 0.00 0.00 0.00 61 1014.0
20260506230415 66 0 6.0 6.0 0.00 0.00 0.00 61 1014.0
20260506225910 66 45 8.0 8.0 0.00 0.00 0.00 60 1014.1
20260506224900 66 180 6.0 6.0 0.00 0.00 0.00 59 1014.3
20260506224355 66 248 6.0 6.0 0.00 0.00 0.00 60 1014.3
20260506223750 66 225 7.0 7.0 0.00 0.00 0.00 60 1014.4
20260506223230 67 225 8.0 8.0 0.00 0.00 0.00 59 1014.4
20260506222215 67 338 7.0 7.0 0.00 0.00 0.00 55 1014.6
20260506221710 67 225 6.0 6.0 0.00 0.00 0.00 54 1014.6
20260506221205 67 293 9.0 9.0 0.00 0.00 0.00 52 1014.8
20260506220700 66 180 5.0 5.0 0.00 0.00 0.00 55 1014.8
20260506220150 68 248 6.0 6.0 0.00 0.00 0.00 54 1014.9
20260506215645 68 180 6.0 6.0 0.00 0.00 0.00 52 1014.9
20260506215140 68 248 6.0 6.0 0.00 0.00 0.00 52 1014.9
20260506214635 68 293 5.0 5.0 0.00 0.00 0.00 50 1015.0
20260506212105 67 113 5.0 5.0 0.00 0.00 0.00 57 1015.1
20260506211600 67 225 5.0 5.0 0.00 0.00 0.00 58 1015.1
20260506211050 67 338 6.0 6.0 0.00 0.00 0.00 59 1015.3
20260506210545 66 135 5.0 5.0 0.00 0.00 0.00 57 1015.3
20260506210040 66 158 6.0 6.0 0.00 0.00 0.00 55 1015.2
20260506205535 67 158 4.0 4.0 0.00 0.00 0.00 53 1015.2
20260506204520 64 203 5.0 5.0 0.00 0.00 0.00 53 1015.3
20260506204015 65 180 6.0 6.0 0.00 0.00 0.00 53 1015.3
20260506203005 65 203 6.0 6.0 0.00 0.00 0.00 53 1015.5
20260506202455 66 135 4.0 4.0 0.00 0.00 0.00 53 1015.6
20260506201950 65 158 6.0 6.0 0.00 0.00 0.00 53 1015.6
20260506201445 66 158 6.0 6.0 0.00 0.00 0.00 53 1015.8
20260506200940 65 225 4.0 4.0 0.00 0.00 0.00 56 1015.8
20260506200435 65 180 7.0 7.0 0.00 0.00 0.00 56 1015.8
20260506194915 66 158 5.0 5.0 0.00 0.00 0.00 50 1015.9
20260506194410 66 225 4.0 4.0 0.00 0.00 0.00 52 1015.9
20260506193355 65 113 6.0 6.0 0.00 0.00 0.00 52 1016.1
20260506192850 64 135 7.0 7.0 0.00 0.00 0.00 56 1016.1
20260506192345 67 90 5.0 5.0 0.00 0.00 0.00 51 1016.1
20260506191840 68 90 5.0 5.0 0.00 0.00 0.00 51 1016.1
20260506191315 67 203 7.0 7.0 0.00 0.00 0.00 52 1016.2
20260506190805 66 158 6.0 6.0 0.00 0.00 0.00 53 1016.2
20260506190205 66 158 7.0 7.0 0.00 0.00 0.00 52 1016.2
20260506185625 66 158 8.0 8.0 0.00 0.00 0.00 53 1016.2
20260506184950 66 113 4.0 4.0 0.00 0.00 0.00 54 1016.4
20260506184445 66 180 6.0 6.0 0.00 0.00 0.00 54 1016.4
20260506183935 66 90 6.0 6.0 0.00 0.00 0.00 57 1016.4
20260506182905 67 113 5.0 5.0 0.00 0.00 0.00 57 1016.4
20260506182325 66 113 7.0 7.0 0.00 0.00 0.00 59 1016.4
20260506181820 67 135 8.0 8.0 0.00 0.00 0.00 56 1016.4
20260506181315 66 203 6.0 6.0 0.00 0.00 0.00 58 1016.5
20260506180805 66 203 5.0 5.0 0.00 0.00 0.00 57 1016.5
20260506180300 66 113 5.0 5.0 0.00 0.00 0.00 57 1016.5
20260506175755 65 135 7.0 7.0 0.00 0.00 0.00 59 1016.4
20260506175250 64 180 5.0 5.0 0.00 0.00 0.00 59 1016.4
20260506174235 63 225 6.0 6.0 0.00 0.00 0.00 62 1016.4
20260506173225 65 158 6.0 6.0 0.00 0.00 0.00 59 1016.3
20260506172720 64 135 4.0 4.0 0.00 0.00 0.00 61 1016.3
20260506172210 64 68 6.0 6.0 0.00 0.00 0.00 62 1016.4
20260506171200 65 203 6.0 6.0 0.00 0.00 0.00 60 1016.2
20260506170655 63 180 5.0 5.0 0.00 0.00 0.00 63 1016.2
20260506170150 64 113 5.0 5.0 0.00 0.00 0.00 61 1016.2
20260506165640 64 135 6.0 6.0 0.00 0.00 0.00 60 1016.2
20260506165135 62 158 5.0 5.0 0.00 0.00 0.00 63 1016.2
20260506164630 65 158 5.0 5.0 0.00 0.00 0.00 60 1016.2
20260506164125 65 113 4.0 4.0 0.00 0.00 0.00 62 1016.2
20260506163615 64 113 5.0 5.0 0.00 0.00 0.00 63 1016.1
20260506162605 63 180 2.0 2.0 0.00 0.00 0.00 65 1016.0
20260506162100 62 180 4.0 4.0 0.00 0.00 0.00 67 1016.0
20260506161555 62 113 5.0 5.0 0.00 0.00 0.00 66 1016.0
20260506161045 63 113 3.0 3.0 0.00 0.00 0.00 66 1016.1
20260506160540 61 180 5.0 5.0 0.00 0.00 0.00 67 1016.1
20260506155026 62 113 4.0 4.0 0.00 0.00 0.00 69 1016.0
20260506154515 61 90 5.0 5.0 0.00 0.00 0.00 72 1016.0
20260506154010 62 113 4.0 4.0 0.00 0.00 0.00 72 1016.0
20260506153000 60 158 4.0 4.0 0.00 0.00 0.00 74 1016.1
20260506152455 60 113 4.0 4.0 0.00 0.00 0.00 73 1016.2
20260506151950 60 113 3.0 3.0 0.00 0.00 0.00 76 1016.2
20260506151440 60 113 2.0 2.0 0.00 0.00 0.00 75 1016.0
20260506150935 60 158 3.0 3.0 0.00 0.00 0.00 77 1016.0
20260506145925 59 135 4.0 4.0 0.00 0.00 0.00 79 1016.2
20260506145420 58 158 4.0 4.0 0.00 0.00 0.00 83 1016.2
20260506144910 59 135 3.0 3.0 0.00 0.00 0.00 81 1016.0
20260506144405 58 203 3.0 3.0 0.00 0.00 0.00 83 1016.0
20260506143901 57 113 3.0 3.0 0.00 0.00 0.00 85 1016.0
20260506143355 57 158 3.0 3.0 0.00 0.00 0.00 84 1015.8
20260506142831 58 180 3.0 3.0 0.00 0.00 0.00 83 1015.8
20260506141311 56 113 2.0 2.0 0.00 0.00 0.00 87 1015.8
20260506140806 56 270 3.0 3.0 0.00 0.00 0.00 88 1015.8
20260506135750 55 135 3.0 3.0 0.00 0.00 0.00 88 1015.8
20260506135246 55 180 2.0 2.0 0.00 0.00 0.00 89 1015.8
20260506134741 55 158 3.0 3.0 0.00 0.00 0.00 89 1015.7
20260506134236 55 135 2.0 2.0 0.00 0.00 0.00 89 1015.7
20260506133730 54 135 3.0 3.0 0.00 0.00 0.00 91 1015.7
20260506132716 53 180 3.0 3.0 0.00 0.00 0.00 91 1015.7
20260506132211 53 158 3.0 3.0 0.00 0.00 0.00 92 1015.5
20260506131706 53 158 4.0 4.0 0.00 0.00 0.00 92 1015.5
20260506131201 53 158 4.0 4.0 0.00 0.00 0.00 92 1015.5
20260506130651 53 113 4.0 4.0 0.00 0.00 0.00 92 1015.5
20260506130146 53 158 3.0 3.0 0.00 0.00 0.00 92 1015.3
20260506125641 53 180 3.0 3.0 0.00 0.00 0.00 92 1015.3
20260506124911 53 180 3.0 3.0 0.00 0.00 0.00 92 1015.1
20260506124406 53 180 3.0 3.0 0.00 0.00 0.00 92 1015.1
20260506123901 53 180 3.0 3.0 0.00 0.00 0.00 92 1015.1
20260506122341 53 180 3.0 3.0 0.00 0.00 0.00 92 1015.0
20260506121836 53 180 3.0 3.0 0.00 0.00 0.00 91 1015.0
20260506121330 53 180 3.0 3.0 0.00 0.00 0.00 91 1015.1
20260506120316 52 180 2.0 2.0 0.00 0.00 0.00 91 1015.1
20260506115811 52 203 4.0 4.0 0.00 0.00 0.00 91 1014.9
20260506115307 52 180 4.0 4.0 0.00 0.00 0.00 91 1014.9
20260506113241 51 293 0.0 0.0 0.00 0.00 0.00 91 1015.0
20260506112736 51 270 1.0 1.0 0.00 0.00 0.00 91 1015.0
20260506112231 50 293 0.0 0.0 0.00 0.00 0.00 90 1014.8
20260506111721 51 315 0.0 0.0 0.00 0.00 0.00 90 1014.8
20260506111216 51 293 0.0 0.0 0.00 0.00 0.00 90 1014.7
20260506110711 51 270 0.0 0.0 0.00 0.00 0.00 89 1014.7
20260506110206 51 270 0.0 0.0 0.00 0.00 0.00 89 1014.8
20260506105656 51 293 0.0 0.0 0.00 0.00 0.00 89 1014.8
20260506104646 51 315 0.0 0.0 0.00 0.00 0.00 89 1014.9
20260506103636 51 293 0.0 0.0 0.00 0.00 0.00 88 1014.7
20260506103126 51 338 0.0 0.0 0.00 0.00 0.00 88 1014.7
20260506102621 51 315 0.0 0.0 0.00 0.00 0.00 87 1014.7
20260506101611 51 315 0.0 0.0 0.00 0.00 0.00 87 1014.7
20260506101106 51 293 0.0 0.0 0.00 0.00 0.00 86 1014.8
20260506100556 51 315 0.0 0.0 0.00 0.00 0.00 85 1014.8
20260506100051 51 338 0.0 0.0 0.00 0.00 0.00 84 1014.9
20260506095546 51 338 0.0 0.0 0.00 0.00 0.00 84 1014.9
20260506095041 51 293 0.0 0.0 0.00 0.00 0.00 84 1014.8
20260506094536 51 315 2.0 2.0 0.00 0.00 0.00 83 1014.8
20260506094026 51 315 2.0 2.0 0.00 0.00 0.00 81 1014.8
20260506093521 51 315 2.0 2.0 0.00 0.00 0.00 80 1015.0
20260506093016 51 293 0.0 0.0 0.00 0.00 0.00 78 1015.0
20260506092511 51 293 0.0 0.0 0.00 0.00 0.00 78 1015.1
20260506092006 51 293 0.0 0.0 0.00 0.00 0.00 76 1015.1
20260506091456 51 315 0.0 0.0 0.00 0.00 0.00 76 1015.1
20260506090951 52 315 0.0 0.0 0.00 0.00 0.00 76 1015.0
20260506090446 52 315 0.0 0.0 0.00 0.00 0.00 77 1015.0
20260506085941 52 293 0.0 0.0 0.00 0.00 0.00 78 1015.0
20260506084926 52 315 2.0 2.0 0.00 0.00 0.00 79 1015.2
20260506084421 53 338 2.0 2.0 0.00 0.00 0.00 80 1015.2
20260506083916 53 270 1.0 1.0 0.00 0.00 0.00 79 1015.2
20260506083411 53 270 2.0 2.0 0.00 0.00 0.00 79 1015.1
20260506082906 53 293 4.0 4.0 0.00 0.00 0.00 81 1015.1
20260506082356 53 293 4.0 4.0 0.00 0.00 0.00 82 1015.2
20260506081851 53 315 4.0 4.0 0.00 0.00 0.00 81 1015.2
20260506081346 54 270 5.0 5.0 0.00 0.00 0.00 83 1015.5
20260506073256 53 293 4.0 4.0 0.00 0.00 0.00 88 1015.3
20260506072751 53 293 5.0 5.0 0.00 0.00 0.00 90 1015.3
20260506072246 53 225 4.0 4.0 0.00 0.00 0.00 89 1015.2
20260506071236 53 270 4.0 4.0 0.00 0.00 0.00 90 1015.0
20260506070726 53 248 4.0 4.0 0.00 0.00 0.00 90 1015.0
20260506070221 53 225 5.0 5.0 0.00 0.00 0.00 90 1015.1
20260506062131 53 270 4.0 4.0 0.00 0.00 0.07 89 1014.9
20260506060821 53 270 4.0 4.0 0.00 0.00 0.07 89 1014.8
20260506050201 54 270 4.0 4.0 0.00 0.00 0.07 88 1014.2
20260506044646 54 270 3.0 3.0 0.00 0.00 0.07 80 1014.1
20260506044137 54 270 4.0 4.0 0.00 0.00 0.07 67 1014.1
20260506043632 54 338 3.0 3.0 0.00 0.00 0.07 67 1014.0
20260506043051 54 68 4.0 4.0 0.00 0.00 0.07 68 1014.0
20260506042546 54 0 4.0 4.0 0.00 0.00 0.07 68 1013.8
20260506042037 54 270 5.0 5.0 0.00 0.00 0.07 67 1013.8
20260506041531 54 338 4.0 4.0 0.00 0.00 0.07 68 1013.8
20260506040521 54 338 4.0 4.0 0.00 0.00 0.07 74 1013.8
20260506035302 54 270 4.0 4.0 0.00 0.00 0.07 73 1013.6
20260506034232 54 248 2.0 2.0 0.00 0.00 0.07 69 1013.3